DW9167 Weather Reports


Display with metric or nautical units.
time (UTC)temp
F
wind
direction
speed
MPH
gust
MPH
rain 1hr
in
rain 24hr
in
rain mn
in
humidity
%
barometer
mb
20260906010834 88 112 1.0 3.0 0.00 0.00 0.00 54 1002.4
20260906005836 89 135 1.0 3.0 0.00 0.00 0.00 54 1002.1
20260906004835 90 67 0.0 0.0 0.00 0.00 0.00 52 1002.1
20260906003934 92 146 3.0 5.0 0.00 0.00 0.00 49 1001.4
20260906002034 93 67 0.0 2.0 0.00 0.00 0.00 45 1001.4
20260906001038 94 90 1.0 4.0 0.00 0.00 0.00 44 1001.1
20260906000037 94 90 1.0 3.0 0.00 0.00 0.00 43 1001.1
20260905235035 95 90 2.0 5.0 0.00 0.00 0.00 42 1000.7
20260905234034 96 67 1.0 3.0 0.00 0.00 0.00 41 1000.7
20260905232036 98 71 2.0 5.0 0.00 0.00 0.00 40 1000.7
20260905231134 97 67 0.0 0.0 0.00 0.00 0.00 41 1000.7
20260905224135 99 205 4.0 6.0 0.00 0.00 0.00 38 1000.4
20260905223134 99 116 1.0 3.0 0.00 0.00 0.00 37 1000.4
20260905222234 99 112 0.0 0.0 0.00 0.00 0.00 40 1000.4
20260905221234 100 180 0.0 2.0 0.00 0.00 0.00 38 1000.4
20260905214334 99 155 0.0 2.0 0.00 0.00 0.00 39 1000.7
20260905213335 99 180 0.0 1.0 0.00 0.00 0.00 38 1000.4
20260905212434 99 90 0.0 0.0 0.00 0.00 0.00 37 1000.7
20260905211434 100 139 1.0 3.0 0.00 0.00 0.00 38 1000.7
20260905210435 98 157 0.0 2.0 0.00 0.00 0.00 38 1000.7
20260905205534 98 67 1.0 3.0 0.00 0.00 0.00 38 1001.4
20260905204537 96 31 2.0 5.0 0.00 0.00 0.00 39 1001.4
20260905203634 98 112 0.0 0.0 0.00 0.00 0.00 37 1001.4
20260905202637 98 151 0.0 4.0 0.00 0.00 0.00 39 1002.1
20260905201733 96 359 2.0 4.0 0.00 0.00 0.00 39 1002.1
20260905200736 97 143 0.0 2.0 0.00 0.00 0.00 41 1002.3
20260905195752 95 180 1.0 5.0 0.00 0.00 0.00 41 1002.6
20260905194735 94 89 2.0 4.0 0.00 0.00 0.00 42 1002.6
20260905193736 96 90 0.0 3.0 0.00 0.00 0.00 42 1002.6
20260905192734 96 135 2.0 4.0 0.00 0.00 0.00 41 1002.8
20260905191735 95 348 0.0 5.0 0.00 0.00 0.00 42 1003.0
20260905190734 95 46 3.0 5.0 0.00 0.00 0.00 43 1003.3
20260905185736 93 176 2.0 6.0 0.00 0.00 0.00 45 1003.7
20260905184835 94 135 0.0 0.0 0.00 0.00 0.00 45 1003.8
20260905183934 93 320 3.0 9.0 0.00 0.00 0.00 46 1003.8
20260905182034 94 163 0.0 3.0 0.00 0.00 0.00 48 1004.2
20260905180135 92 112 0.0 0.0 0.00 0.00 0.00 51 1004.9
20260905175135 93 163 1.0 5.0 0.00 0.00 0.00 49 1005.2
20260905174134 93 144 0.0 2.0 0.00 0.00 0.00 50 1005.6
20260905173135 92 120 0.0 2.0 0.00 0.00 0.00 51 1005.6
20260905172135 93 197 1.0 4.0 0.00 0.00 0.00 51 1005.6
20260905171136 91 292 0.0 2.0 0.00 0.00 0.00 54 1005.9
20260905170134 91 152 2.0 4.0 0.00 0.00 0.00 52 1005.9
20260905165133 91 229 4.0 9.0 0.00 0.00 0.00 56 1005.6
20260905164136 90 135 0.0 0.0 0.00 0.00 0.00 58 1006.2
20260905162234 90 180 0.0 4.0 0.00 0.00 0.00 59 1006.2
20260905160333 88 180 0.0 1.0 0.00 0.00 0.00 69 1006.2
20260905155335 86 170 2.0 5.0 0.00 0.00 0.00 71 1006.2
20260905154337 84 182 1.0 5.0 0.00 0.00 0.00 77 1006.6
20260905153336 83 292 0.0 1.0 0.00 0.00 0.00 80 1006.9
20260905152433 83 181 2.0 8.0 0.00 0.00 0.00 82 1006.9
20260905151434 82 180 2.0 4.0 0.00 0.00 0.00 85 1006.9
20260905150436 81 180 0.0 2.0 0.00 0.00 0.00 89 1006.9
20260905145534 80 270 0.0 0.0 0.00 0.00 0.00 92 1006.9
20260905144633 80 163 1.0 4.0 0.00 0.00 0.00 94 1006.9
20260905143634 80 180 0.0 1.0 0.00 0.00 0.00 96 1006.9
20260905142634 80 161 0.0 2.0 0.00 0.00 0.00 96 1006.9
20260905141634 79 180 0.0 1.0 0.00 0.00 0.00 97 1006.9
20260905140635 79 135 0.0 0.0 0.00 0.00 0.00 97 1006.9
20260905135734 78 145 1.0 5.0 0.00 0.00 0.00 96 1006.9
20260905134733 78 180 1.0 3.0 0.00 0.00 0.00 95 1006.9
20260905132735 77 180 0.0 0.0 0.00 0.00 0.00 93 1006.9
20260905131736 76 180 0.0 0.0 0.00 0.00 0.00 92 1006.9
20260905130833 76 180 1.0 4.0 0.00 0.00 0.00 92 1006.9
20260905125835 76 180 0.0 0.0 0.00 0.00 0.00 92 1006.9
20260905124933 76 180 0.0 0.0 0.00 0.00 0.00 91 1006.6
20260905123934 75 180 0.0 0.0 0.00 0.00 0.00 90 1006.6
20260905122935 75 180 0.0 0.0 0.00 0.00 0.00 90 1006.9
20260905122033 75 180 0.0 0.0 0.00 0.00 0.00 91 1006.9
20260905120035 75 180 0.0 0.0 0.00 0.00 0.00 93 1006.2
20260905115035 76 180 0.0 0.0 0.00 0.00 0.00 94 1006.2
20260905114034 76 180 0.0 0.0 0.00 0.00 0.00 94 1006.2
20260905113035 76 180 0.0 0.0 0.00 0.00 0.00 95 1006.2
20260905112037 76 180 0.0 0.0 0.00 0.00 0.00 95 1006.2
20260905111036 76 180 0.0 0.0 0.00 0.00 0.00 95 1006.2
20260905110036 76 157 0.0 0.0 0.00 0.00 0.00 95 1006.2
20260905105036 76 157 0.0 0.0 0.00 0.00 0.00 95 1006.2
20260905104033 76 157 0.0 0.0 0.00 0.00 0.00 95 1005.9
20260905103037 76 157 0.0 0.0 0.00 0.00 0.00 95 1006.2
20260905101034 76 157 0.0 0.0 0.00 0.00 0.00 94 1006.2
20260905095133 76 180 0.0 0.0 0.00 0.00 0.00 95 1005.6
20260905094133 76 180 0.0 3.0 0.00 0.00 0.00 95 1005.6
20260905093135 76 254 1.0 4.0 0.00 0.00 0.00 96 1005.6
20260905091135 76 180 0.0 2.0 0.00 0.00 0.00 97 1005.9
20260905090134 76 180 0.0 0.0 0.00 0.00 0.00 97 1005.9
20260905084236 76 175 0.0 3.0 0.00 0.00 0.00 97 1005.9
20260905083334 76 180 0.0 0.0 0.00 0.00 0.00 97 1005.9
20260905082433 77 170 1.0 4.0 0.00 0.00 0.00 97 1005.9
20260905081435 77 179 3.0 6.0 0.00 0.00 0.00 97 1006.2
20260905080534 77 171 2.0 5.0 0.00 0.00 0.00 97 1006.2
20260905075534 76 175 1.0 5.0 0.00 0.00 0.00 96 1006.2
20260905074537 77 173 3.0 5.0 0.00 0.00 0.00 97 1006.2
20260905073633 76 165 1.0 4.0 0.00 0.00 0.00 97 1006.2
20260905072635 77 180 0.0 0.0 0.00 0.00 0.00 97 1006.6
20260905071733 77 180 0.0 0.0 0.00 0.00 0.00 96 1006.6
20260905065734 77 157 0.0 0.0 0.00 0.00 0.00 95 1006.6
20260905064832 77 180 0.0 0.0 0.00 0.00 0.00 94 1006.6
20260905063835 77 180 0.0 0.0 0.00 0.00 0.00 93 1006.2
20260905062934 77 157 0.0 0.0 0.00 0.00 0.00 93 1006.2
20260905062034 77 157 0.0 0.0 0.00 0.00 0.00 93 1006.6
20260905061032 78 180 0.0 3.0 0.00 0.00 0.00 92 1006.6
20260905060037 78 135 0.0 2.0 0.00 0.00 0.00 90 1006.2
20260905055034 78 180 0.0 0.0 0.00 0.00 0.00 89 1006.6
20260905054033 78 180 0.0 2.0 0.00 0.00 0.00 88 1006.6
20260905052133 78 180 0.0 2.0 0.00 0.00 0.00 87 1006.6
20260905044318 79 157 0.0 0.0 0.00 0.00 0.00 83 1006.2
20260905043319 79 178 0.0 3.0 0.00 0.00 0.00 83 1006.2
20260905042318 79 114 0.0 1.0 0.00 0.00 0.00 82 1006.2
20260905041320 79 180 0.0 1.0 0.00 0.00 0.00 82 1006.2
20260905040419 79 270 0.0 0.0 0.00 0.00 0.00 81 1006.2
20260905035419 80 135 0.0 0.0 0.00 0.00 0.00 80 1006.2
20260905034419 80 157 1.0 3.0 0.00 0.00 0.00 79 1005.9
20260905033418 80 157 0.0 0.0 0.00 0.00 0.00 77 1005.9
20260905032419 81 157 0.0 0.0 0.00 0.00 0.00 76 1005.9
20260905031518 81 157 0.0 0.0 0.00 0.00 0.00 76 1005.6
20260905030520 81 157 0.0 1.0 0.00 0.00 0.00 74 1005.6
20260905025617 81 135 0.0 0.0 0.00 0.00 0.00 74 1005.6
20260905024621 81 135 0.0 0.0 0.00 0.00 0.00 74 1005.6
20260905023618 81 135 0.0 0.0 0.00 0.00 0.00 74 1005.6
20260905022717 81 135 0.0 0.0 0.00 0.00 0.00 73 1005.4
20260905021720 82 135 0.0 0.0 0.00 0.00 0.00 72 1005.2
20260905020717 82 135 0.0 0.0 0.00 0.00 0.00 72 1005.2
20260905015817 82 180 0.0 0.0 0.00 0.00 0.00 72 1005.2
20260905014819 82 180 0.0 1.0 0.00 0.00 0.00 72 1004.9
20260905012819 83 180 1.0 6.0 0.00 0.00 0.00 72 1004.9
20260905011817 84 112 0.0 2.0 0.00 0.00 0.00 72 1004.5